This demonstration page uses our WeatherBlox Daily Observations layout. Learn more.

Left ArrowRight Arrow

Hourly Observations for March 6, 2022

Temp ( °F °C ) Dew Point ( °F °C ) Humidity (%) Winds ( mph kmh ) Pressure ( in mb ) Visibility ( mi km ) Precip ( " mm )
12:53 am 00:53 Clear 48 8.9 0 -17.8 13 13 ESE 6 9 29.83 1010 10 16 0.00 0.00
1:53 am 01:53 Clear 49 9.4 4 -15.6 16 16 ESE 9 15 29.81 1010 10 16 0.00 0.00
2:53 am 02:53 Clear 55 12.8 34 1.1 45 45 SE 13 20 29.77 1008 10 16 0.00 0.00
3:53 am 03:53 Clear 55 12.8 41 5 59 59 SE 15 24 29.74 1007 10 16 0.00 0.00
4:53 am 04:53 Clear 54 12.2 45 7.2 72 72 SE 13 20 29.73 1007 10 16 0.00 0.00
5:53 am 05:53 Clear 53 11.7 45 7.2 74 74 SE 9 15 29.72 1007 10 16 0.00 0.00
6:53 am 06:53 Clear 53 11.7 48 8.9 83 83 SE 14 22 29.72 1006 10 16 0.00 0.00
7:53 am 07:53 Sunny 50 10 46 7.8 86 86 SW 3 6 29.75 1008 8 13 0.00 0.00
8:53 am 08:53 Sunny 57 13.9 50 10 78 78 SSE 6 9 29.77 1008 10 16 0.00 0.00
9:53 am 09:53 Sunny 63 17.2 44 6.7 50 50 S 3 6 29.78 1008 10 16 0.00 0.00
10:53 am 10:53 Sunny 70 21.1 26 -3.3 19 19 W 7 11 29.76 1008 10 16 0.00 0.00
11:53 am 11:53 Sunny 76 24.4 6 -14.4 6 6 W 14 22 29.74 1007 10 16 0.00 0.00
12:53 pm 12:53 Sunny 78 25.6 1 -17.2 5 5 WSW 16 26 29.72 1007 10 16 0.00 0.00
1:53 pm 13:53 Sunny 79 26.1 0 -17.8 4 4 WNW 23 37 29.71 1006 10 16 0.00 0.00
2:53 pm 14:53 Sunny 76 24.4 6 -14.4 6 6 W 28 44 29.72 1007 9 14 0.00 0.00
3:53 pm 15:53 Mostly Cloudy 75 23.9 9 -12.8 8 8 WNW 29 46 29.74 1007 7 11 0.00 0.00
4:06 pm 16:06 Mostly Cloudy with Haze 74 23.3 10 -12.2 8 8 WNW 24 39 29.69 1005 6 10 0.00 0.00
4:53 pm 16:53 Mostly Cloudy with Haze 72 22.2 11 -11.7 9 9 WNW 32 52 29.76 1008 5 8 0.00 0.00
5:46 pm 17:46 Mostly Cloudy 70 21.1 11 -11.7 10 10 WNW 29 46 29.75 1007 7 11 0.00 0.00
5:53 pm 17:53 Mostly Cloudy 70 21.1 11 -11.7 10 10 W 29 46 29.79 1009 7 11 0.00 0.00
6:10 pm 18:10 Mostly Cloudy with Haze 68 20 11 -11.7 11 11 WNW 33 54 29.76 1008 3 4 0.00 0.00
6:25 pm 18:25 Mostly Cloudy with Haze 67 19.4 11 -11.7 11 11 WNW 29 46 29.79 1009 4 6 0.00 0.00
6:33 pm 18:33 Partly Cloudy 67 19.4 11 -11.7 11 11 WNW 25 41 29.79 1009 8 13 0.00 0.00
6:53 pm 18:53 Sunny 65 18.3 10 -12.2 11 11 W 26 43 29.83 1010 10 16 0.00 0.00
7:53 pm 19:53 Clear 61 16.1 4 -15.6 10 10 NW 16 26 29.90 1013 10 16 0.00 0.00
8:53 pm 20:53 Clear 58 14.4 1 -17.2 10 10 NW 13 20 29.93 1014 10 16 0.00 0.00
9:53 pm 21:53 Clear 56 13.3 1 -17.2 10 10 NW 14 22 29.96 1015 10 16 0.00 0.00
10:53 pm 22:53 Clear 52 11.1 1 -17.2 12 12 NW 14 22 29.99 1016 10 16 0.00 0.00
11:53 pm 23:53 Clear 48 8.9 10 -12.2 21 21 NE 16 26 30.03 1017 10 16 0.00 0.00

Powered by AerisWeather